When you browse on this site, cookies collect data to enhance your experience and personalize the content and advertising you see.
Visit our Privacy Policy to learn more. By continuing to use the site, you agree to this use of cookies and data.
  • In Romania
  • List of Countries
  • For 7 days
  • Water Temperature
  • Satellite Maps
  • Weather Map
  • Weather Widgets
  • user-avatar
    Login

    Hourly Weather Tatarbaevo

    Today, 22 July, Monday

    Time Temperature Precipitation Wind Pressure Humidity
    00:00 +16°C° 0 mm 2 mps 746 mmHg 93%
    01:00 +16°C° 0 mm 2 mps 746 mmHg 94%
    02:00 +15°C° 0 mm 2 mps 746 mmHg 94%
    03:00 +15°C° 0 mm 2 mps 745 mmHg 95%
    04:00 +15°C° 0 mm 2 mps 745 mmHg 96%
    05:00 +15°C° 0 mm 2 mps 745 mmHg 95%
    06:00 +16°C° 0 mm 3 mps 746 mmHg 94%
    07:00 +17°C° 0 mm 3 mps 746 mmHg 92%
    08:00 +18°C° 0.2 mm 3 mps 746 mmHg 89%
    09:00 +19°C° 0.2 mm 3 mps 745 mmHg 85%
    10:00 +20°C° 0 mm 3 mps 745 mmHg 82%
    11:00 +21°C° 0.5 mm 4 mps 745 mmHg 80%
    12:00 +21°C° 0.5 mm 4 mps 745 mmHg 78%
    13:00 +22°C° 0.5 mm 4 mps 745 mmHg 77%
    14:00 +22°C° 0.4 mm 4 mps 745 mmHg 76%
    15:00 +22°C° 0.4 mm 4 mps 744 mmHg 76%
    16:00 +22°C° 0.4 mm 4 mps 744 mmHg 75%
    17:00 +21°C° 0.1 mm 3 mps 744 mmHg 78%
    18:00 +21°C° 0.1 mm 3 mps 744 mmHg 82%
    19:00 +20°C° 0.1 mm 2 mps 744 mmHg 85%
    20:00 +19°C° 0.1 mm 2 mps 744 mmHg 88%
    21:00 +18°C° 0.1 mm 2 mps 744 mmHg 90%
    22:00 +16°C° 0.1 mm 2 mps 744 mmHg 93%
    23:00 +16°C° 0 mm 2 mps 743 mmHg 94%

    Tomorrow, 23 July, Tuesday

    Time Temperature Precipitation Wind Pressure Humidity
    00:00 +15°C° 0 mm 2 mps 743 mmHg 95%
    01:00 +15°C° 0 mm 2 mps 743 mmHg 96%
    02:00 +14°C° 0 mm 2 mps 743 mmHg 96%
    03:00 +14°C° 0 mm 2 mps 743 mmHg 96%
    04:00 +14°C° 0 mm 2 mps 744 mmHg 97%
    05:00 +14°C° 0 mm 2 mps 744 mmHg 96%
    06:00 +15°C° 0 mm 2 mps 744 mmHg 95%
    07:00 +16°C° 0 mm 2 mps 744 mmHg 95%
    08:00 +17°C° 0 mm 2 mps 744 mmHg 92%
    09:00 +18°C° 0 mm 3 mps 744 mmHg 89%
    10:00 +19°C° 0 mm 3 mps 744 mmHg 86%
    11:00 +20°C° 0.5 mm 3 mps 744 mmHg 83%
    12:00 +21°C° 0.5 mm 4 mps 744 mmHg 80%
    13:00 +21°C° 0.5 mm 4 mps 744 mmHg 77%
    14:00 +22°C° 0.5 mm 4 mps 744 mmHg 77%
    15:00 +22°C° 0.5 mm 4 mps 744 mmHg 77%
    16:00 +22°C° 0.5 mm 4 mps 744 mmHg 77%
    17:00 +21°C° 0.2 mm 3 mps 745 mmHg 81%
    18:00 +21°C° 0.2 mm 3 mps 745 mmHg 85%
    19:00 +20°C° 0.2 mm 3 mps 745 mmHg 89%
    20:00 +19°C° 0.3 mm 3 mps 745 mmHg 91%
    21:00 +18°C° 0.3 mm 3 mps 745 mmHg 93%
    22:00 +16°C° 0.3 mm 3 mps 745 mmHg 95%
    23:00 +16°C° 0 mm 2 mps 745 mmHg 95%

    Day after tomorrow, 24 July, Wednesday

    Time Temperature Precipitation Wind Pressure Humidity
    00:00 +16°C° 0 mm 2 mps 746 mmHg 96%
    01:00 +15°C° 0 mm 2 mps 746 mmHg 96%
    02:00 +15°C° 0 mm 2 mps 746 mmHg 96%
    03:00 +15°C° 0 mm 1 mps 746 mmHg 96%
    04:00 +14°C° 0 mm 1 mps 746 mmHg 96%
    05:00 +15°C° 0 mm 2 mps 747 mmHg 95%
    06:00 +16°C° 0 mm 2 mps 747 mmHg 93%
    07:00 +17°C° 0 mm 2 mps 747 mmHg 92%
    08:00 +18°C° 0 mm 2 mps 747 mmHg 89%
    09:00 +19°C° 0 mm 3 mps 747 mmHg 85%
    10:00 +20°C° 0 mm 3 mps 747 mmHg 81%
    11:00 +22°C° 0.2 mm 3 mps 747 mmHg 79%
    12:00 +23°C° 0.2 mm 4 mps 748 mmHg 77%
    13:00 +25°C° 0.2 mm 4 mps 748 mmHg 74%
    14:00 +23°C° 0.5 mm 4 mps 748 mmHg 76%
    15:00 +24°C° 0.5 mm 3 mps 748 mmHg 77%
    16:00 +24°C° 0.5 mm 3 mps 748 mmHg 78%
    17:00 +24°C° 0.1 mm 3 mps 748 mmHg 79%
    18:00 +23°C° 0.1 mm 2 mps 748 mmHg 81%
    19:00 +23°C° 0.1 mm 2 mps 748 mmHg 83%
    20:00 +21°C° 0 mm 2 mps 748 mmHg 84%
    21:00 +19°C° 0 mm 2 mps 748 mmHg 86%
    22:00 +18°C° 0 mm 2 mps 749 mmHg 87%
    23:00 +18°C° 0 mm 2 mps 749 mmHg 87%

    25 July, Thursday

    Time Temperature Precipitation Wind Pressure Humidity
    00:00 +18°C° 0 mm 1 mps 749 mmHg 88%
    01:00 +18°C° 0 mm 1 mps 749 mmHg 88%
    02:00 +18°C° 0 mm 1 mps 749 mmHg 88%
    03:00 +16°C° 0 mm 1 mps 749 mmHg 88%
    04:00 +16°C° 0 mm 1 mps 749 mmHg 87%
    05:00 +18°C° 0 mm 1 mps 750 mmHg 85%
    06:00 +20°C° 0 mm 1 mps 750 mmHg 83%
    07:00 +21°C° 0 mm 1 mps 750 mmHg 81%
    08:00 +23°C° 0 mm 1 mps 750 mmHg 75%
    09:00 +24°C° 0 mm 1 mps 750 mmHg 70%
    10:00 +26°C° 0 mm 1 mps 750 mmHg 65%
    11:00 +26°C° 0 mm 1 mps 750 mmHg 62%
    12:00 +27°C° 0 mm 2 mps 750 mmHg 58%
    13:00 +28°C° 0 mm 2 mps 750 mmHg 55%
    14:00 +28°C° 0 mm 2 mps 750 mmHg 56%
    15:00 +28°C° 0 mm 2 mps 750 mmHg 57%
    16:00 +28°C° 0 mm 2 mps 750 mmHg 58%
    17:00 +27°C° 0 mm 2 mps 750 mmHg 63%
    18:00 +26°C° 0 mm 2 mps 750 mmHg 69%
    19:00 +24°C° 0 mm 2 mps 749 mmHg 74%
    20:00 +23°C° 0 mm 2 mps 750 mmHg 75%
    21:00 +20°C° 0 mm 2 mps 750 mmHg 76%
    22:00 +19°C° 0 mm 2 mps 750 mmHg 76%
    23:00 +18°C° 0 mm 2 mps 750 mmHg 79%

    26 July, Friday

    Time Temperature Precipitation Wind Pressure Humidity
    00:00 +18°C° 0 mm 2 mps 750 mmHg 81%
    01:00 +18°C° 0 mm 2 mps 750 mmHg 83%
    02:00 +18°C° 0 mm 1 mps 750 mmHg 81%
    03:00 +18°C° 0 mm 1 mps 750 mmHg 80%
    04:00 +18°C° 0 mm 1 mps 749 mmHg 78%
    05:00 +19°C° 0 mm 1 mps 749 mmHg 76%
    06:00 +20°C° 0 mm 1 mps 749 mmHg 74%
    07:00 +21°C° 0 mm 1 mps 750 mmHg 72%
    08:00 +22°C° 0 mm 1 mps 750 mmHg 68%
    09:00 +24°C° 0 mm 1 mps 749 mmHg 64%
    10:00 +25°C° 0 mm 1 mps 749 mmHg 59%
    11:00 +26°C° 0 mm 1 mps 749 mmHg 57%
    12:00 +27°C° 0 mm 1 mps 749 mmHg 55%
    13:00 +28°C° 0 mm 1 mps 749 mmHg 53%
    14:00 +28°C° 0 mm 1 mps 749 mmHg 54%
    15:00 +28°C° 0 mm 2 mps 748 mmHg 54%
    16:00 +28°C° 0 mm 2 mps 748 mmHg 55%
    17:00 +27°C° 0 mm 2 mps 748 mmHg 62%
    18:00 +25°C° 0 mm 2 mps 748 mmHg 68%
    19:00 +24°C° 0 mm 2 mps 748 mmHg 75%
    20:00 +23°C° 0 mm 2 mps 747 mmHg 77%
    21:00 +21°C° 0 mm 1 mps 747 mmHg 79%
    22:00 +20°C° 0 mm 1 mps 747 mmHg 80%
    23:00 +19°C° 0 mm 1 mps 747 mmHg 82%

    27 July, Saturday

    Time Temperature Precipitation Wind Pressure Humidity
    00:00 +19°C° 0 mm 1 mps 747 mmHg 83%
    01:00 +18°C° 0 mm 1 mps 747 mmHg 84%
    02:00 +16°C° 0 mm 0 mps 747 mmHg 85%
    03:00 +16°C° 0 mm 0 mps 746 mmHg 85%
    04:00 +15°C° 0 mm 0 mps 746 mmHg 86%
    05:00 +17°C° 0 mm 0 mps 746 mmHg 84%
    06:00 +18°C° 0 mm 0 mps 746 mmHg 81%
    07:00 +19°C° 0 mm 0 mps 746 mmHg 79%
    08:00 +21°C° 0 mm 0 mps 746 mmHg 75%
    09:00 +24°C° 0 mm 1 mps 745 mmHg 71%
    10:00 +25°C° 0 mm 1 mps 745 mmHg 67%
    11:00 +26°C° 0.1 mm 2 mps 745 mmHg 64%
    12:00 +27°C° 0.1 mm 2 mps 744 mmHg 61%
    13:00 +27°C° 0.1 mm 2 mps 744 mmHg 59%
    14:00 +27°C° 0.2 mm 3 mps 744 mmHg 60%
    15:00 +27°C° 0.2 mm 3 mps 743 mmHg 62%
    16:00 +27°C° 0.2 mm 3 mps 743 mmHg 64%
    17:00 +26°C° 0.3 mm 3 mps 742 mmHg 69%
    18:00 +25°C° 0.3 mm 2 mps 742 mmHg 74%
    19:00 +24°C° 0.3 mm 2 mps 741 mmHg 79%
    20:00 +23°C° 0.1 mm 2 mps 741 mmHg 81%
    21:00 +20°C° 0.1 mm 2 mps 741 mmHg 83%
    22:00 +19°C° 0.1 mm 2 mps 740 mmHg 85%
    23:00 +18°C° 0 mm 2 mps 740 mmHg 86%
    Show more